Regional Weather Roundup
Issued by NWS

Home | Current Version | Previous Version | Graphics & Text | Print | Product List | Glossary Off
Versions: 1 2 3 4 5 6 7 8 9 10 11 12 13 14 15 16 17 18 19 20 21 22 23 24 25 26 27 28 29 30 31 32 33 34 35 36 37 38 39 40 41 42 43 44 45 46 47 48 49 50

000
ASUS43 KTOP 240759
RWRKS

WEATHER ROUNDUP FOR KANSAS
NATIONAL WEATHER SERVICE GOODLAND KS
300 AM CDT FRI OCT 24 2014

NOTE:  "FAIR" INDICATES FEW OR NO CLOUDS BELOW 12,000 FEET WITH NO
SIGNIFICANT WEATHER AND/OR OBSTRUCTIONS TO VISIBILITY.

KSZ001>006-013>018-027>032-041>047-240900-
NORTHWEST KANSAS

CITY           SKY/WX    TMP DP  RH WIND       PRES   REMARKS
GOODLAND       CLEAR     55  51  86 SW10      30.08S
HAYS           CLEAR     57  52  82 SW7       30.04S
HILL CITY      PTCLDY    58  55  90 SW5       30.02F
RUSSELL        CLEAR     59  57  93 S12       30.02F
$$

KSZ061>065-074>080-084>089-240900-
SOUTHWEST KANSAS

CITY           SKY/WX    TMP DP  RH WIND       PRES   REMARKS
DODGE CITY     PTCLDY    61  57  87 SW12      30.07S
ELKHART          N/A     56  49  78 W8          N/A
GARDEN CITY    PTCLDY    55  53  93 S6        30.07S FOG
GREAT BEND     CLEAR     55  52  88 S7        30.05F
LIBERAL        CLEAR     57  52  82 SW6       30.10F
$$

KSZ066>073-081>083-090>101-240900-
SOUTHEAST KANSAS

CITY           SKY/WX    TMP DP  RH WIND       PRES   REMARKS
CHANUTE        MOCLDY    55  54  96 SE6       30.10F FOG
COFFEYVILLE    CLOUDY    54  53  97 SE5       30.11R
HUTCHINSON     CLEAR     59  56  89 SE7       30.06S FOG
NEWTON         CLEAR     55  52  88 S7        30.09S
PARSONS        MOCLDY    56  55  97 CALM      30.12S
WICHITA INTL   PTCLDY    59  56  89 S6        30.07R
WICHITA JABRA  CLEAR     58  56  93 S7        30.07S
WINFIELD       CLEAR     58  57  97 SE7       30.09S
$$

KSZ007>012-019>026-033>040-048>060-102>105-240900-
NORTHEAST KANSAS

CITY           SKY/WX    TMP DP  RH WIND       PRES   REMARKS
CONCORDIA      CLEAR     60  59  96 S9        30.02S FOG
EMPORIA        CLOUDY    58  57  97 S10       30.07F FOG
LAWRENCE       PTCLDY    55  54  96 CALM      30.08S FOG
MANHATTAN      FOG       53  53 100 CALM      30.04F VSB 1/2
OLATHE IND     FOG       55  55 100 S8        30.09S VSB 3/4
OLATHE EXE     FOG       56  56 100 S9        30.08S VSB 1/2
SALINA         CLEAR     59  56  89 S7        30.04F FOG
TOPEKA BILLARD PTCLDY    59  58  96 S6        30.06F FOG
TOPEKA FORBES  CLOUDY    58  56  93 S10       30.07S FOG
$$



USA.gov is the U.S. government's official web portal to all federal, state and local government web resources and services.